{"data":{"norad_id":57617,"intl_designator":"2023-119R","name":"STARLINK-30148","alt_names":[],"object_type":"PAYLOAD","status":"ACTIVE","operator":null,"country":"US","launch_date":"2023-08-11","launch_site_code":"AFETR","launch_vehicle":null,"mission":null,"orbit_class":"UNKNOWN","rcs_meters":null,"size_class":null,"mass_kg":null,"dimensions":null,"purposes":["comms"],"wikipedia_slug":null,"has_3d_model":false,"image_url":null,"decayed_at":null,"tle_current":{"epoch":"2026-09-19T18:43:48.647424Z","epoch_age_seconds":190119,"freshness":"STALE","line1":"1 57617U 23119R   26262.78042416  .00000192  00000+0  16530-4 0  9992","line2":"2 57617  43.0037  65.1566 0001839 267.5455  92.5186 15.27575950172770","mean_motion":15.2757595,"eccentricity":0.0001839,"inclination_deg":43.0037,"raan_deg":65.1566,"arg_perigee_deg":267.5455,"mean_anomaly_deg":92.5186,"bstar":1.653e-5,"rev_number":17277,"period_min":94.266998639249,"perigee_km":481.79944887018,"apogee_km":484.32299757668,"semimajor_km":6861.1982232234,"source":"CELESTRAK","updated_at":"2026-09-21T09:00:33.663511Z"}}}